Location: Torch Lake Township
(45.0753°N, 85.3586°W)
Time: 16:47:24
(UTC-04:00)

Amateur Radio Satellites - All Passes

Search period start: 26 June 2016 16:17
Search period end: 27 June 2016 16:17
Location: Torch Lake Township, 45.0753°N, 85.3586°W

Satellite Date Start Highest point End Downlink Frequencies (MHz)
Time Altitude Azimuth
Gurwin Techsat 1B 26 Jun 16:18:11 16:21:46 18° 269° (W) 16:25:23 435.225
SWISSCUBE 26 Jun 16:23:19 16:28:08 73° 287° (WNW) 16:32:54 437.505
ITAMSAT 1 26 Jun 16:36:28 16:41:01 30° 265° (W) 16:45:36 435.822/435.867
KKS-1 26 Jun 16:40:08 16:43:26 20° 93° (E) 16:46:44 437.445
AO-7 26 Jun 16:45:20 16:53:37 69° 255° (WSW) 17:02:00 29.400- 29.500
ISS 26 Jun 16:46:10 16:49:25 63° 214° (SSW) 16:52:39 145.825
SO-50 26 Jun 16:46:13 16:50:10 25° 113° (ESE) 16:54:07 436.795
ITUPSAT 1 26 Jun 16:48:28 16:53:07 48° 290° (WNW) 16:57:43 437.325
BEESAT 26 Jun 16:49:04 16:53:40 46° 290° (WNW) 16:58:14 436.000
YUBILEINY 26 Jun 16:53:36 16:58:21 15° 306° (NW) 17:03:09 435.215
HORYU 2 26 Jun 17:05:00 17:09:07 39° 69° (ENE) 17:13:16 437.375
AIST 1 26 Jun 17:13:31 17:15:20 12° 83° (E) 17:17:09
STARS 26 Jun 17:18:32 17:22:13 26° 95° (E) 17:25:53 437.465
CUTE-I 26 Jun 17:22:41 17:24:57 13° 55° (NE) 17:27:14 437.470
RS-15 26 Jun 17:24:59 17:35:08 31° 350° (N) 17:45:37 29.354- 29.394
Cosmos 2504 26 Jun 17:32:30 17:38:50 24° 300° (WNW) 17:45:30 435.465 / 435.565
MOZHAYETS 4 26 Jun 17:48:57 17:53:38 88° 284° (WNW) 17:58:16
NOAA 15 26 Jun 17:55:50 18:00:27 31° 65° (ENE) 18:05:03 137.62
LilacSat-2 26 Jun 17:57:01 17:59:01 14° 63° (ENE) 18:01:02 437.200
NOAA 18 26 Jun 18:00:04 18:04:43 29° 63° (ENE) 18:09:23 137.9125
SWISSCUBE 26 Jun 18:04:14 18:05:04 10° 305° (NW) 18:05:53 437.505
BRITE-PL 26 Jun 18:05:29 18:09:55 32° 69° (ENE) 18:14:05 437.365/2234.400
KKS-1 26 Jun 18:15:59 18:20:12 43° 290° (WNW) 18:24:24 437.445
Cubesat XI-IV 26 Jun 18:24:09 18:29:05 39° 67° (ENE) 18:34:03 437.490
SO-50 26 Jun 18:25:37 18:30:24 51° 311° (NW) 18:35:09 436.795
DOVE 4 26 Jun 18:29:08 18:29:52 10° 60° (ENE) 18:30:35 437.250
Cosmos 2499 26 Jun 18:30:41 18:35:36 17° 74° (ENE) 18:40:40 435.465 / 435.565
HORYU 2 26 Jun 18:42:21 18:45:48 22° 266° (W) 18:49:17 437.375
AO-7 26 Jun 18:44:07 18:47:55 14° 275° (W) 18:51:45 29.400- 29.500
HO-68 26 Jun 18:45:29 18:49:32 16° 49° (NE) 18:53:35 435.675
AIST 1 26 Jun 18:48:05 18:52:22 62° 280° (W) 18:56:40
GOMX 1 26 Jun 18:51:05 18:55:21 38° 71° (ENE) 18:59:25 467.674
GONETS M04 26 Jun 18:52:44 19:00:26 37° 85° (E) 19:08:07
STARS 26 Jun 18:54:39 18:58:36 33° 292° (WNW) 19:02:33 437.465
CUTE-I 26 Jun 18:58:46 19:04:06 77° 73° (ENE) 19:09:30 437.470
CUBESAT XI-V 26 Jun 19:10:14 19:14:55 80° 104° (ESE) 19:19:31 437.345
CUSAT 1 26 Jun 19:25:28 19:29:27 43° 72° (ENE) 19:32:33 437.405
DANDE 26 Jun 19:26:44 19:31:13 24° 62° (ENE) 19:34:47 436.750
MOZHAYETS 4 26 Jun 19:28:26 19:30:03 12° 302° (WNW) 19:31:40
LilacSat-2 26 Jun 19:29:15 19:32:55 50° 261° (W) 19:36:39 437.200
NOAA 15 26 Jun 19:35:11 19:40:06 38° 262° (W) 19:45:03 137.62
CANX-2 26 Jun 19:35:13 19:37:49 16° 62° (ENE) 19:40:24 2200.000
STRAND 1 26 Jun 19:37:51 19:39:51 12° 87° (E) 19:41:52 437.568
CINEMA 3 26 Jun 19:39:17 19:41:53 16° 63° (ENE) 19:44:28 145.822/145.860
NOAA 18 26 Jun 19:40:00 19:45:11 44° 261° (W) 19:50:26 137.9125
RS-15 26 Jun 19:41:13 19:52:17 37° 25° (NNE) 20:03:26 29.354- 29.394
BRITE-PL 26 Jun 19:43:48 19:48:22 33° 263° (W) 19:52:40 437.365/2234.400
CUTE 1.7 + AOD 2 26 Jun 19:54:52 19:58:08 22° 65° (ENE) 20:01:25 437.475
DOVE 4 26 Jun 20:02:36 20:06:59 87° 256° (WSW) 20:11:12 437.250
SEEDS 26 Jun 20:03:14 20:06:16 19° 64° (ENE) 20:09:20 437.485
Cubesat XI-IV 26 Jun 20:04:33 20:09:13 30° 265° (W) 20:13:56 437.490
SO-50 26 Jun 20:09:37 20:12:01 13° 333° (NNW) 20:14:24 436.795
Cosmos 2499 26 Jun 20:18:55 20:27:10 79° 96° (E) 20:36:00 435.465 / 435.565
HO-68 26 Jun 20:28:55 20:36:00 69° 69° (ENE) 20:43:09 435.675
GOMX 1 26 Jun 20:29:52 20:33:34 23° 266° (W) 20:37:06 467.674
CUTE-I 26 Jun 20:41:45 20:44:46 15° 271° (W) 20:47:48 437.470
Oscar 11 26 Jun 20:42:34 20:44:38 13° 60° (ENE) 20:46:42 145.826/435.025
UWE-3 26 Jun 20:43:25 20:46:11 17° 63° (ENE) 20:49:00 435.000/436.395/437.385
FUNcube-1 26 Jun 20:47:25 20:49:11 12° 60° (ENE) 20:50:58 145.935
AAUSAT CUBESAT 2 26 Jun 20:47:57 20:51:39 31° 69° (ENE) 20:55:23 437.432
GONETS M04 26 Jun 20:48:29 20:56:56 53° 286° (WNW) 21:05:25
AUBIESAT-1 26 Jun 20:49:10 20:51:50 23° 63° (ENE) 20:54:33 437.475
CUBESAT XI-V 26 Jun 20:49:26 20:51:38 13° 301° (WNW) 20:53:51 437.345
CANX-2 26 Jun 21:09:00 21:13:12 57° 260° (W) 21:17:29 2200.000
DANDE 26 Jun 21:09:23 21:14:19 37° 271° (W) 21:18:05 436.750
CUSAT 1 26 Jun 21:10:01 21:10:39 10° 280° (W) 21:11:16 437.405
STRAND 1 26 Jun 21:14:32 21:19:44 88° 289° (WNW) 21:24:54 437.568
CINEMA 3 26 Jun 21:14:38 21:18:40 49° 261° (W) 21:22:43 145.822/145.860
COMPASS 1 26 Jun 21:19:15 21:23:28 85° 73° (ENE) 21:27:43 437.405
DELFI C3 26 Jun 21:19:48 21:21:50 14° 62° (ENE) 21:23:53 145.870
M-CUBED/EXP-1 PRIME 26 Jun 21:25:56 21:29:13 88° 73° (ENE) 21:32:30 437.505
CUBEBUG 2 26 Jun 21:26:07 21:30:14 66° 74° (ENE) 21:34:28 437.445
CUTE 1.7 + AOD 2 26 Jun 21:29:43 21:33:44 39° 263° (W) 21:37:47 437.475
PRISM 26 Jun 21:35:57 21:39:20 24° 95° (E) 21:42:41 437.425
SEEDS 26 Jun 21:37:37 21:41:40 43° 262° (W) 21:45:46 437.485
RS-15 26 Jun 21:54:28 22:06:53 82° 53° (NE) 22:19:13 29.354- 29.394
HUMSAT D 26 Jun 21:59:22 22:02:12 18° 64° (ENE) 22:05:04 437.325/437.525
ZACube-1 26 Jun 22:01:51 22:06:01 74° 74° (ENE) 22:10:19 437.345
Cosmos 2499 26 Jun 22:14:38 22:21:22 26° 298° (WNW) 22:28:26 435.465 / 435.565
Oscar 11 26 Jun 22:15:52 22:20:11 72° 258° (WSW) 22:24:34 145.826/435.025
AO-85 26 Jun 22:16:31 22:20:52 25° 112° (ESE) 22:25:08 145.980
UWE-3 26 Jun 22:18:15 22:22:17 48° 261° (W) 22:26:26 435.000/436.395/437.385
HO-68 26 Jun 22:18:40 22:24:17 25° 268° (W) 22:29:59 435.675
FUNcube-1 26 Jun 22:20:38 22:24:49 74° 257° (WSW) 22:29:07 145.935
AAUSAT CUBESAT 2 26 Jun 22:23:42 22:27:09 25° 266° (W) 22:30:38 437.432
AUBIESAT-1 26 Jun 22:23:48 22:26:21 21° 259° (W) 22:28:55 437.475
DELFI C3 26 Jun 22:52:14 22:56:13 60° 259° (W) 23:00:14 145.870
ESTCUBE 1 26 Jun 22:52:27 22:54:58 15° 60° (ENE) 22:57:29 437.505/2401.250
GONETS M04 26 Jun 22:53:29 22:56:15 12° 311° (NW) 22:59:00
STRAND 1 26 Jun 22:55:36 22:58:09 14° 304° (WNW) 23:00:42 437.568
YUBILEINY 26 Jun 23:03:21 23:08:33 16° 55° (NE) 23:13:44 435.215
AISAT 26 Jun 23:05:46 23:07:50 13° 59° (ENE) 23:09:52 437.250
CUBEBUG 2 26 Jun 23:05:55 23:07:23 12° 272° (W) 23:08:51 437.445
PRISM 26 Jun 23:11:04 23:14:40 30° 292° (WNW) 23:18:13 437.425
TIGRISAT 26 Jun 23:17:26 23:21:09 24° 93° (E) 23:24:54 435.000
UKube-1 26 Jun 23:18:29 23:19:27 11° 58° (ENE) 23:20:24 .
UNISAT 6 26 Jun 23:21:40 23:25:38 27° 95° (E) 23:29:38 437.425
DX 1 26 Jun 23:32:12 23:35:09 18° 62° (ENE) 23:38:06 434.975-435.025
HUMSAT D 26 Jun 23:33:28 23:37:29 46° 261° (W) 23:41:34 437.325/437.525
SO-50 26 Jun 23:36:13 23:37:39 11° 23° (NNE) 23:39:05 436.795
ZACube-1 26 Jun 23:41:57 23:42:53 11° 273° (W) 23:43:48 437.345
AO-85 26 Jun 23:55:45 00:01:05 58° 310° (NW) 00:06:13 145.980
CUBEBUG 1 26 Jun 23:56:29 00:00:33 39° 70° (ENE) 00:04:36 437.445
VELOX 1 26 Jun 23:59:03 00:03:09 40° 70° (ENE) 00:07:17 145.980
ANTELSAT 27 Jun 00:01:08 00:05:45 67° 101° (ESE) 00:10:25 437.575/2403.000
NANOSAT C BR1 27 Jun 00:03:04 00:04:23 11° 89° (E) 00:05:42 145.865
QB50P1 27 Jun 00:04:24 00:06:13 12° 89° (E) 00:08:02 145.935-145.965
50 SAT 27 Jun 00:04:47 00:08:21 45° 72° (ENE) 00:11:56 437.505
POPSAT HIP 1 27 Jun 00:07:13 00:09:16 13° 90° (E) 00:11:19 437.405
RS-15 27 Jun 00:07:59 00:18:10 32° 257° (WSW) 00:28:17 29.354- 29.394
Cosmos 2491 27 Jun 00:17:03 00:22:30 18° 76° (ENE) 00:27:55 435.465 / 435.565
QB50P2 27 Jun 00:18:12 00:21:14 19° 92° (E) 00:24:15 145.880/145.840
POLYITAN 1 27 Jun 00:20:47 00:23:51 19° 92° (E) 00:26:56 437.675
DUCHIFAT 1 27 Jun 00:23:18 00:26:12 18° 92° (E) 00:29:07 145.980
ESTCUBE 1 27 Jun 00:26:42 00:31:13 70° 258° (WSW) 00:35:46 437.505/2401.250
AISAT 27 Jun 00:39:19 00:43:44 75° 258° (WSW) 00:48:08 437.250
TISAT 1 27 Jun 00:49:52 00:52:32 17° 63° (ENE) 00:55:12 437.305
UKube-1 27 Jun 00:50:28 00:54:47 88° 86° (E) 00:59:08 .
TIGRISAT 27 Jun 00:53:39 00:57:58 40° 290° (WNW) 01:02:19 435.000
SPROUT 27 Jun 00:56:00 01:00:13 68° 74° (ENE) 01:04:27 437.525
UNISAT 6 27 Jun 00:58:12 01:02:22 35° 291° (WNW) 01:06:36 437.425
YUBILEINY 27 Jun 00:58:24 01:07:15 70° 79° (ENE) 01:16:04 435.215
DX 1 27 Jun 01:06:45 01:10:58 50° 260° (W) 01:15:13 434.975-435.025
SO-50 27 Jun 01:15:02 01:19:29 39° 46° (NE) 01:23:47 436.795
Cosmos 2504 27 Jun 01:26:28 01:34:39 38° 69° (ENE) 01:42:33 435.465 / 435.565
BUGSAT 1 27 Jun 01:26:54 01:30:45 38° 98° (E) 01:34:35 437.445
CUBEBUG 1 27 Jun 01:33:40 01:36:59 21° 267° (W) 01:40:18 437.445
NANOSAT C BR1 27 Jun 01:36:22 01:40:36 72° 286° (WNW) 01:44:50 145.865
VELOX 1 27 Jun 01:36:23 01:39:46 21° 266° (W) 01:43:11 145.980
QB50P1 27 Jun 01:38:12 01:42:25 65° 287° (WNW) 01:46:39 145.935-145.965
ANTELSAT 27 Jun 01:39:10 01:41:57 16° 299° (WNW) 01:44:46 437.575/2403.000
AO-85 27 Jun 01:39:30 01:42:37 16° 330° (NNW) 01:45:39 145.980
50 SAT 27 Jun 01:40:21 01:42:17 14° 269° (W) 01:44:14 437.505
POPSAT HIP 1 27 Jun 01:41:14 01:45:27 61° 286° (WNW) 01:49:39 437.405
QB50P2 27 Jun 01:53:11 01:57:14 43° 289° (WNW) 02:01:16 145.880/145.840
SWISSCUBE 27 Jun 01:55:21 01:58:54 21° 62° (ENE) 02:02:28 437.505
POLYITAN 1 27 Jun 01:55:49 01:59:51 42° 290° (WNW) 02:03:53 437.675
DUCHIFAT 1 27 Jun 01:58:05 02:02:07 44° 289° (WNW) 02:06:09 145.980
JAS-2 27 Jun 02:02:40 02:08:12 45° 97° (E) 02:13:15 435.910
Cosmos 2491 27 Jun 02:09:11 02:17:58 85° 97° (E) 02:26:46 435.465 / 435.565
ITUPSAT 1 27 Jun 02:19:50 02:24:01 31° 66° (ENE) 02:28:13 437.325
BEESAT 27 Jun 02:20:05 02:24:16 31° 67° (ENE) 02:28:29 436.000
TISAT 1 27 Jun 02:23:47 02:27:49 50° 260° (W) 02:31:54 437.305
PCSat 27 Jun 02:32:25 02:35:59 18° 105° (ESE) 02:39:35 145.827
SPROUT 27 Jun 02:35:01 02:36:37 12° 271° (W) 02:38:15 437.525
Oscar 19 27 Jun 02:48:52 02:53:47 44° 99° (E) 02:58:39 437.125/150
Gurwin Techsat 1B 27 Jun 02:51:00 02:55:03 22° 92° (E) 02:59:04 435.225
SO-50 27 Jun 02:55:48 02:59:50 30° 245° (WSW) 03:03:45 436.795
YUBILEINY 27 Jun 02:56:14 03:03:16 28° 279° (W) 03:10:18 435.215
BUGSAT 1 27 Jun 03:02:52 03:05:54 20° 295° (WNW) 03:08:56 437.445
ITAMSAT 1 27 Jun 03:10:04 03:11:18 11° 87° (E) 03:12:32 435.822/435.867
MOZHAYETS 4 27 Jun 03:18:02 03:20:28 14° 60° (ENE) 03:22:55
Cosmos 2504 27 Jun 03:19:46 03:28:22 55° 270° (W) 03:36:40 435.465 / 435.565
O/OREOS (USA 219) 27 Jun 03:23:12 03:26:41 22° 102° (ESE) 03:30:10 437.305
SWISSCUBE 27 Jun 03:31:42 03:36:21 51° 260° (W) 03:41:03 437.505
KKS-1 27 Jun 03:40:04 03:43:38 24° 65° (ENE) 03:47:13 437.445
JAS-2 27 Jun 03:48:12 03:53:02 27° 299° (WNW) 03:57:30 435.910
ITUPSAT 1 27 Jun 03:57:28 04:01:47 33° 264° (W) 04:06:08 437.325
BEESAT 27 Jun 03:57:45 04:02:01 32° 264° (W) 04:06:19 436.000
Cosmos 2491 27 Jun 04:09:20 04:15:59 23° 299° (WNW) 04:22:41 435.465 / 435.565
PCSat 27 Jun 04:13:22 04:18:46 72° 303° (WNW) 04:24:14 145.827
STARS 27 Jun 04:17:01 04:20:48 29° 67° (ENE) 04:24:36 437.465
BEESAT 3 27 Jun 04:19:31 04:23:25 77° 124° (SE) 04:27:23 437.485
Oscar 19 27 Jun 04:28:40 04:32:52 26° 296° (WNW) 04:37:04 437.125/150
Gurwin Techsat 1B 27 Jun 04:30:08 04:35:20 54° 289° (WNW) 04:40:30 435.225
CUBESAT XI-V 27 Jun 04:41:01 04:43:05 13° 59° (ENE) 04:45:10 437.345
AO-7 27 Jun 04:44:52 04:52:30 37° 97° (E) 05:00:02 29.400- 29.500
ITAMSAT 1 27 Jun 04:46:17 04:51:34 83° 105° (ESE) 04:56:48 435.822/435.867
MOZHAYETS 4 27 Jun 04:52:25 04:57:02 75° 258° (WSW) 05:01:42
AIST 1 27 Jun 04:53:04 04:57:02 37° 75° (ENE) 05:00:59
BEESAT 2 27 Jun 04:53:41 04:57:39 84° 303° (WNW) 05:01:40 435.950
GONETS M04 27 Jun 05:00:06 05:06:18 21° 59° (ENE) 05:12:28
O/OREOS (USA 219) 27 Jun 05:01:36 05:05:51 40° 300° (WNW) 05:10:06 437.305
AO-85 27 Jun 05:07:50 05:08:19 10° 20° (NNE) 05:08:46 145.980
KKS-1 27 Jun 05:15:57 05:20:02 36° 262° (W) 05:24:08 437.445
Cosmos 2504 27 Jun 05:18:15 05:19:35 10° 292° (WNW) 05:20:56 435.465 / 435.565
AIST 2 27 Jun 05:23:23 05:25:00 12° 109° (ESE) 05:26:38 435.215
STARS 27 Jun 05:53:21 05:57:07 28° 264° (W) 06:00:56 437.465
BEESAT 3 27 Jun 05:59:06 06:01:36 16° 323° (NW) 06:04:08 437.485
PCSat 27 Jun 05:59:42 06:03:10 17° 325° (NW) 06:06:39 145.827
Cosmos 2499 27 Jun 06:08:14 06:16:11 35° 67° (ENE) 06:23:45 435.465 / 435.565
CUBESAT XI-V 27 Jun 06:15:04 06:19:47 86° 254° (WSW) 06:24:32 437.345
ITAMSAT 1 27 Jun 06:27:18 06:30:21 16° 303° (WNW) 06:33:25 435.822/435.867
HORYU 2 27 Jun 06:29:53 06:34:21 59° 101° (ESE) 06:38:47 437.375
AIST 1 27 Jun 06:31:17 06:34:22 20° 273° (W) 06:37:27
BEESAT 2 27 Jun 06:33:57 06:36:07 14° 325° (NW) 06:38:18 435.950
AO-7 27 Jun 06:37:25 06:45:33 57° 297° (WNW) 06:53:38 29.400- 29.500
Cubesat XI-IV 27 Jun 06:41:01 06:43:23 13° 87° (E) 06:45:44 437.490
AO-85 27 Jun 06:46:03 06:50:20 33° 44° (NE) 06:54:14 145.980
CUSAT 1 27 Jun 06:50:40 06:52:21 11° 80° (E) 06:54:01 437.405
STRAND 1 27 Jun 06:54:44 06:58:43 23° 62° (ENE) 07:02:44 437.568
GONETS M04 27 Jun 06:55:45 07:04:31 86° 82° (E) 07:13:17
AIST 2 27 Jun 06:58:47 07:02:54 75° 307° (NW) 07:07:02 435.215
LilacSat-2 27 Jun 07:01:35 07:03:55 15° 91° (E) 07:06:14 437.200
CUTE-I 27 Jun 07:14:18 07:18:47 26° 94° (E) 07:23:15 437.470
BRITE-PL 27 Jun 07:45:54 07:50:03 67° 101° (E) 07:54:12 437.365/2234.400
NOAA 15 27 Jun 07:47:43 07:52:59 68° 103° (ESE) 07:58:12 137.62
NOAA 18 27 Jun 07:59:28 08:05:02 67° 103° (ESE) 08:10:33 137.9125
DOVE 4 27 Jun 07:59:30 08:02:42 20° 93° (E) 08:06:00 437.250
Cosmos 2499 27 Jun 08:01:11 08:09:47 59° 269° (W) 08:17:57 435.465 / 435.565
HORYU 2 27 Jun 08:07:36 08:10:27 17° 299° (WNW) 08:13:18 437.375
Cubesat XI-IV 27 Jun 08:18:44 08:24:10 89° 284° (WNW) 08:29:34 437.490
CUSAT 1 27 Jun 08:25:50 08:33:30 59° 96° (E) 08:40:00 437.405
AO-85 27 Jun 08:26:43 08:30:45 32° 245° (WSW) 08:34:28 145.980
PRISM 27 Jun 08:27:17 08:30:40 25° 66° (ENE) 08:34:04 437.425
GOMX 1 27 Jun 08:27:57 08:32:08 85° 103° (ESE) 08:36:27 467.674
AO-7 27 Jun 08:32:07 08:36:33 16° 319° (NW) 08:41:00 29.400- 29.500
STRAND 1 27 Jun 08:32:34 08:37:34 51° 260° (W) 08:42:36 437.568
DANDE 27 Jun 08:32:51 08:40:25 39° 89° (E) 08:47:31 436.750
LilacSat-2 27 Jun 08:34:44 08:38:26 44° 288° (WNW) 08:42:09 437.200
AIST 2 27 Jun 08:39:56 08:42:07 14° 327° (NNW) 08:44:17 435.215
PHONESAT 2.4 27 Jun 08:42:48 08:44:50 17° 159° (SSE) 08:46:54 2401.200-2431.200
CANX-2 27 Jun 08:52:36 08:55:56 21° 93° (E) 08:59:14 2200.000
CUTE-I 27 Jun 08:53:54 08:59:02 46° 292° (WNW) 09:04:07 437.470
GONETS M04 27 Jun 08:54:12 09:00:11 21° 283° (WNW) 09:06:10
COMPASS 1 27 Jun 09:02:10 09:03:46 12° 88° (E) 09:05:21 437.405
CINEMA 3 27 Jun 09:06:36 09:10:38 31° 96° (E) 09:14:49 145.822/145.860
CUTE 1.7 + AOD 2 27 Jun 09:12:35 09:16:23 30° 95° (E) 09:20:10 437.475
CUBEBUG 2 27 Jun 09:16:08 09:18:22 13° 89° (E) 09:20:38 437.445
SEEDS 27 Jun 09:19:41 09:23:17 26° 94° (E) 09:26:51 437.485
BRITE-PL 27 Jun 09:26:18 09:28:02 12° 300° (WNW) 09:29:47 437.365/2234.400
ISS 27 Jun 09:28:32 09:30:05 13° 132° (SE) 09:31:38 145.825
NOAA 15 27 Jun 09:28:40 09:32:14 19° 301° (WNW) 09:35:47 137.62
DOVE 4 27 Jun 09:36:34 09:40:34 40° 289° (WNW) 09:44:44 437.250
NOAA 18 27 Jun 09:41:10 09:45:10 21° 301° (WNW) 09:49:10 137.9125
HO-68 27 Jun 09:41:52 09:49:01 61° 102° (ESE) 09:56:07 435.675
ZACube-1 27 Jun 09:49:31 09:51:47 14° 89° (E) 09:54:04 437.345
Cosmos 2499 27 Jun 09:58:24 10:00:50 11° 291° (WNW) 10:03:15 435.465 / 435.565
AUBIESAT-1 27 Jun 09:59:39 10:01:58 15° 99° (E) 10:04:21 437.475
Cubesat XI-IV 27 Jun 10:00:34 10:03:29 15° 304° (WNW) 10:06:22 437.490
Oscar 11 27 Jun 10:01:58 10:05:00 18° 92° (E) 10:08:00 145.826/435.025
PRISM 27 Jun 10:02:07 10:05:51 32° 263° (W) 10:09:36 437.425
AAUSAT CUBESAT 2 27 Jun 10:03:09 10:07:09 43° 98° (E) 10:11:06 437.432
UWE-3 27 Jun 10:05:34 10:09:33 29° 95° (E) 10:13:35 435.000/436.395/437.385
FUNcube-1 27 Jun 10:07:10 10:10:27 19° 92° (E) 10:13:44 145.935
GOMX 1 27 Jun 10:08:58 10:09:39 10° 300° (WNW) 10:10:20 467.674
CUSAT 1 27 Jun 10:09:09 10:15:48 31° 290° (WNW) 10:21:34 437.405
DANDE 27 Jun 10:14:51 10:23:05 55° 286° (WNW) 10:30:41 436.750
PHONESAT 2.4 27 Jun 10:18:11 10:20:59 33° 175° (S) 10:23:49 2401.200-2431.200
TIGRISAT 27 Jun 10:18:18 10:21:48 25° 65° (ENE) 10:25:22 435.000
UNISAT 6 27 Jun 10:22:38 10:26:21 29° 67° (ENE) 10:30:09 437.425
Cosmos 2491 27 Jun 10:25:47 10:26:00 10° 47° (NE) 10:26:13 435.465 / 435.565
CANX-2 27 Jun 10:27:56 10:31:55 37° 290° (WNW) 10:35:51 2200.000
DELFI C3 27 Jun 10:29:06 10:31:27 15° 91° (E) 10:33:47 145.870
COMPASS 1 27 Jun 10:35:36 10:39:47 66° 286° (WNW) 10:43:55 437.405
M-CUBED/EXP-1 PRIME 27 Jun 10:36:28 10:40:08 44° 105° (ESE) 10:44:06 437.505
CINEMA 3 27 Jun 10:43:51 10:47:42 29° 292° (WNW) 10:51:43 145.822/145.860
CUTE 1.7 + AOD 2 27 Jun 10:48:32 10:52:08 27° 293° (WNW) 10:55:45 437.475
CUBEBUG 2 27 Jun 10:50:52 10:55:26 71° 286° (WNW) 11:00:05 437.445
SEEDS 27 Jun 10:55:15 10:58:59 30° 292° (WNW) 11:02:41 437.485
NANOSAT C BR1 27 Jun 10:57:32 10:59:07 12° 60° (ENE) 11:00:43 145.865
BEESAT 3 27 Jun 10:58:28 11:00:39 14° 35° (NE) 11:02:48 437.485
QB50P1 27 Jun 10:59:12 11:01:10 13° 61° (ENE) 11:03:09 145.935-145.965
ANTELSAT 27 Jun 11:01:49 11:06:05 72° 75° (ENE) 11:10:30 437.575/2403.000
POPSAT HIP 1 27 Jun 11:02:04 11:04:13 14° 61° (ENE) 11:06:21 437.405
ISS 27 Jun 11:02:49 11:06:04 86° 149° (SSE) 11:09:21 145.825
QB50P2 27 Jun 11:13:02 11:16:00 19° 64° (ENE) 11:18:58 145.880/145.840
HUMSAT D 27 Jun 11:15:05 11:18:38 24° 94° (E) 11:22:10 437.325/437.525
POLYITAN 1 27 Jun 11:15:37 11:18:36 19° 64° (ENE) 11:21:37 437.675
PCSat 27 Jun 11:16:22 11:20:59 27° 43° (NE) 11:25:35 145.827
DUCHIFAT 1 27 Jun 11:17:27 11:20:16 18° 63° (ENE) 11:23:05 145.980
ZACube-1 27 Jun 11:24:00 11:28:30 68° 286° (WNW) 11:33:03 437.345
HO-68 27 Jun 11:30:13 11:36:19 31° 302° (WNW) 11:42:26 435.675
AUBIESAT-1 27 Jun 11:32:54 11:36:38 51° 293° (WNW) 11:40:37 437.475
BEESAT 2 27 Jun 11:33:00 11:35:38 17° 37° (NE) 11:38:16 435.950
Oscar 11 27 Jun 11:37:11 11:41:22 46° 289° (WNW) 11:45:31 145.826/435.025
AAUSAT CUBESAT 2 27 Jun 11:39:23 11:42:20 19° 296° (WNW) 11:45:15 437.432
UWE-3 27 Jun 11:41:57 11:46:00 32° 292° (WNW) 11:50:06 435.000/436.395/437.385
FUNcube-1 27 Jun 11:42:34 11:46:54 47° 289° (WNW) 11:51:17 145.935
TIGRISAT 27 Jun 11:54:27 11:58:21 33° 263° (W) 12:02:21 435.000
PHONESAT 2.4 27 Jun 11:54:33 11:57:15 28° 192° (SSW) 11:59:57 2401.200-2431.200
UNISAT 6 27 Jun 11:59:18 12:03:02 29° 265° (W) 12:06:51 437.425
DELFI C3 27 Jun 12:02:44 12:06:35 47° 288° (WNW) 12:10:24 145.870
DANDE 27 Jun 12:03:49 12:07:29 13° 305° (NW) 12:11:00 436.750
YUBILEINY 27 Jun 12:10:19 12:14:48 15° 73° (ENE) 12:19:18 435.215
M-CUBED/EXP-1 PRIME 27 Jun 12:11:53 12:14:28 18° 300° (WNW) 12:17:10 437.505
JAS-2 27 Jun 12:15:34 12:22:03 33° 63° (ENE) 12:28:02 435.910
Cosmos 2491 27 Jun 12:17:14 12:25:36 48° 73° (ENE) 12:33:55 435.465 / 435.565
ESTCUBE 1 27 Jun 12:17:52 12:21:19 21° 93° (E) 12:24:44 437.505/2401.250
BUGSAT 1 27 Jun 12:18:36 12:22:14 34° 69° (ENE) 12:25:53 437.445
RS-15 27 Jun 12:20:35 12:30:56 43° 108° (ESE) 12:41:46 29.354- 29.394
AISAT 27 Jun 12:28:25 12:31:22 17° 92° (E) 12:34:19 437.250
NANOSAT C BR1 27 Jun 12:30:05 12:34:16 76° 258° (WSW) 12:38:28 145.865
Oscar 19 27 Jun 12:32:13 12:34:13 12° 55° (NE) 12:36:13 437.125/150
QB50P1 27 Jun 12:32:15 12:36:24 68° 257° (WSW) 12:40:37 145.935-145.965
BEESAT 3 27 Jun 12:34:58 12:38:57 85° 55° (NE) 12:42:54 437.485
POPSAT HIP 1 27 Jun 12:35:20 12:39:29 64° 258° (WSW) 12:43:41 437.405
UKube-1 27 Jun 12:37:26 12:39:17 12° 90° (E) 12:41:08 .
ISS 27 Jun 12:39:53 12:42:48 29° 348° (NNW) 12:45:44 145.825
ANTELSAT 27 Jun 12:41:55 12:43:22 11° 272° (W) 12:44:49 437.575/2403.000
QB50P2 27 Jun 12:47:29 12:51:30 44° 261° (W) 12:55:33 145.880/145.840
POLYITAN 1 27 Jun 12:50:08 12:54:07 43° 261° (W) 12:58:09 437.675
HUMSAT D 27 Jun 12:50:24 12:54:18 34° 291° (WNW) 12:58:12 437.325/437.525
DUCHIFAT 1 27 Jun 12:51:37 12:55:37 46° 261° (W) 12:59:40 145.980
DX 1 27 Jun 12:53:16 12:56:45 23° 94° (E) 13:00:12 434.975-435.025
PCSat 27 Jun 12:59:25 13:04:45 59° 244° (WSW) 13:10:04 145.827
50 SAT 27 Jun 13:05:22 13:08:55 42° 99° (E) 13:12:25 437.505
BEESAT 2 27 Jun 13:09:57 13:13:58 75° 237° (WSW) 13:17:56 435.950
CUBEBUG 1 27 Jun 13:18:49 13:23:06 60° 101° (E) 13:27:23 437.445
VELOX 1 27 Jun 13:23:05 13:27:26 60° 101° (E) 13:31:47 145.980
O/OREOS (USA 219) 27 Jun 13:30:00 13:34:27 61° 63° (ENE) 13:38:53 437.305
PHONESAT 2.4 27 Jun 13:32:25 13:33:17 11° 207° (SSW) 13:34:09 2401.200-2431.200
AIST 2 27 Jun 13:40:31 13:43:37 20° 39° (NE) 13:46:43 435.215
ESTCUBE 1 27 Jun 13:54:03 13:58:19 41° 290° (WNW) 14:02:31 437.505/2401.250
BUGSAT 1 27 Jun 13:54:39 13:57:42 21° 266° (W) 14:00:45 437.445
AO-7 27 Jun 13:58:02 14:02:43 17° 42° (NE) 14:07:25 29.400- 29.500
JAS-2 27 Jun 13:59:11 14:06:45 59° 259° (W) 14:13:42 435.910
YUBILEINY 27 Jun 14:01:19 14:09:58 75° 94° (E) 14:18:43 435.215
AISAT 27 Jun 14:03:53 14:08:07 48° 289° (WNW) 14:12:21 437.250
TISAT 1 27 Jun 14:06:07 14:09:19 21° 94° (E) 14:12:30 437.305
Oscar 19 27 Jun 14:07:33 14:12:42 79° 73° (ENE) 14:17:51 437.125/150
Cosmos 2504 27 Jun 14:08:03 14:14:37 28° 80° (E) 14:21:31 435.465 / 435.565
UKube-1 27 Jun 14:11:30 14:15:47 66° 287° (WNW) 14:20:03 .
Gurwin Techsat 1B 27 Jun 14:13:44 14:18:41 41° 68° (ENE) 14:23:40 435.225
Cosmos 2491 27 Jun 14:14:22 14:22:19 42° 274° (W) 14:30:15 435.465 / 435.565
SPROUT 27 Jun 14:15:39 14:19:57 81° 285° (WNW) 14:24:14 437.525
ISS 27 Jun 14:17:01 14:19:53 27° 9° (N) 14:22:44 145.825
ITAMSAT 1 27 Jun 14:28:26 14:32:26 23° 61° (ENE) 14:36:26 435.822/435.867
DX 1 27 Jun 14:29:03 14:33:02 36° 291° (WNW) 14:36:58 434.975-435.025
RS-15 27 Jun 14:31:22 14:42:49 66° 313° (NW) 14:54:58 29.354- 29.394
50 SAT 27 Jun 14:40:04 14:42:16 15° 296° (WNW) 14:44:28 437.505
CUBEBUG 1 27 Jun 14:56:26 14:58:56 15° 298° (WNW) 15:01:25 437.445
VELOX 1 27 Jun 15:00:49 15:03:27 16° 299° (WNW) 15:06:03 145.980
O/OREOS (USA 219) 27 Jun 15:10:52 15:13:20 15° 261° (W) 15:15:47 437.305
AIST 2 27 Jun 15:18:22 15:22:29 62° 239° (WSW) 15:26:35 435.215
SWISSCUBE 27 Jun 15:29:51 15:34:15 34° 97° (E) 15:38:36 437.505
TISAT 1 27 Jun 15:41:12 15:45:05 37° 290° (WNW) 15:48:59 437.305
AO-7 27 Jun 15:45:42 15:53:49 60° 64° (ENE) 16:02:00 29.400- 29.500
Oscar 19 27 Jun 15:50:00 15:52:37 14° 271° (W) 15:55:14 437.125/150
JAS-2 27 Jun 15:51:44 15:52:55 10° 277° (W) 15:54:06 435.910
ISS 27 Jun 15:53:24 15:56:41 76° 27° (NNE) 15:59:57 145.825
Gurwin Techsat 1B 27 Jun 15:54:13 15:58:45 28° 266° (W) 16:03:19 435.225
BEESAT 27 Jun 15:55:06 15:59:49 55° 100° (E) 16:04:31 436.000
ITUPSAT 1 27 Jun 15:55:16 16:00:00 54° 101° (E) 16:04:42 437.325
Cosmos 2504 27 Jun 15:59:07 16:07:11 69° 282° (WNW) 16:15:54 435.465 / 435.565
YUBILEINY 27 Jun 16:00:36 16:07:41 27° 297° (WNW) 16:14:52 435.215
ITAMSAT 1 27 Jun 16:06:26 16:11:32 54° 259° (W) 16:16:40 435.822/435.867
